Location: The Jewett Observatory
(46.7288°N, 117.1525°W)
Time: 03:11:36
(UTC-07:00)

Cosmos 1633 - Visible Passes

Search period start: 29 July 2016 00:00
Search period end: 08 August 2016 00:00
Orbit: 475 x 493 km, 82.5° (Epoch: 28 July)

Date Brightness Start Highest point End Pass type
(mag) Time Alt. Az. Time Alt. Az. Time Alt. Az.
29 Jul 4.8 00:43:07 17° WNW 00:43:33 18° WNW 00:46:07 10° NNW visible
29 Jul 4.2 22:44:00 22° E 22:44:00 22° E 22:46:35 10° NE visible
30 Jul 4.3 00:18:21 26° W 00:18:35 26° WNW 00:21:46 10° NNW visible
30 Jul 4.6 22:19:13 15° E 22:19:13 15° E 22:21:07 10° NE visible
30 Jul 3.6 23:53:33 40° W 23:53:39 40° WNW 23:57:12 10° N visible
31 Jul 2.8 23:28:45 65° W 23:28:47 65° W 23:32:29 10° N visible
01 Aug 2.4 23:03:55 77° ESE 23:03:57 77° E 23:07:40 10° NNE visible
02 Aug 2.9 22:39:04 46° E 22:39:10 46° E 22:42:44 10° NNE visible
03 Aug 5.2 00:13:24 13° W 00:14:30 14° WNW 00:16:30 10° NW visible
03 Aug 3.6 22:14:11 29° E 22:14:24 29° E 22:17:39 10° NNE visible
03 Aug 4.7 23:48:32 19° W 23:49:30 20° WNW 23:52:21 10° NNW visible
04 Aug 4.1 21:49:17 19° E 21:49:41 19° E 21:52:23 10° NE visible
04 Aug 4.1 23:23:38 27° WSW 23:24:32 31° WNW 23:27:52 10° N visible
05 Aug 4.6 21:24:22 12° E 21:25:01 13° E 21:26:41 10° ENE visible
05 Aug 3.4 22:58:41 38° WSW 22:59:38 48° WNW 23:03:14 10° N visible
06 Aug 2.6 22:33:44 46° SSW 22:34:45 79° W 22:38:28 10° N visible
07 Aug 2.6 22:08:44 39° SSE 22:09:55 63° E 22:13:36 10° NNE visible
07 Aug 5.6 23:44:27 10° W 23:45:25 11° WNW 23:46:23 10° NW visible
